Forks, WA

7:56 PM PST on February 19, 2017 (GMT -0800)
Quillayute

Weather History for KUIL - May, 2014

Change the Weather History Date:

Sunday, May 18, 2014

  Actual Average Record
Temperature  
Mean Temperature 56 °F 52 °F  
Max Temperature 64 °F 60 °F 78 °F (1997)
Min Temperature 47 °F 44 °F 31 °F (1976)
Degree Days  
Heating Degree Days 9 13  
Month to date heating degree days 180 265  
Since 1 July heating degree days 4462 5307  
Cooling Degree Days 0 0  
Month to date cooling degree days 2 0  
Year to date cooling degree days 4 0  
Growing Degree Days 6 (Base 50)    
Moisture  
Dew Point 50 °F    
Average Humidity 82    
Maximum Humidity 100    
Minimum Humidity 64    
Precipitation  
Precipitation 0.04 in 0.15 in 1.63 in (1986)
Month to date precipitation 3.21 3.15  
Year to date precipitation 51.49 46.79  
Sea Level Pressure  
Sea Level Pressure 29.86 in    
Wind  
Wind Speed 5 mph (SW)    
Max Wind Speed 14 mph    
Max Gust Speed 19 mph    
Visibility 6 miles    
Events Rain    
T = Trace of Precipitation, MM = Missing Value Source: NWS Daily Summary

Daily Weather History Graph

Daily Weather History Graph

Search for Another Location

Airport or City:

Trip Planner

Search our weather history database for the weather conditions in past years. The results will help you decide how hot, cold, wet, or windy it might be!

Date:

Astronomy

May. 18, 2014 Rise Set
Actual Time 5:35 AM PDT 8:54 PM PDT
Civil Twilight 4:58 AM PDT 9:31 PM PDT
Nautical Twilight 4:09 AM PDT 10:21 PM PDT
Astronomical Twilight 3:06 AM PDT 11:25 PM PDT
Moon No Moon Rise 9:35 AM PDT (5/18)
Length of Visible Light 16h 33m
Length of Day
15h 18m
Waning Gibbous, 80% of the Moon is Illuminated
May 18
Waning Gibbous
May 21
Last Quarter
May 28
New
Jun 5
First Quarter
Jun 12
Full

Hourly Weather History & Observations

Time (PDT) Temp. Dew Point Humidity Pressure Visibility Wind Dir Wind Speed Gust Speed Precip Events Conditions
12:12 AM 48.9 °F 46.9 °F 93% 29.88 in 7.0 mi East 3.5 mph - N/A   Mostly Cloudy
12:53 AM 48.9 °F 46.9 °F 93% 29.87 in 7.0 mi Calm Calm - N/A   Overcast
1:53 AM 48.0 °F 46.9 °F 96% 29.86 in 7.0 mi Calm Calm - N/A   Overcast
2:53 AM 48.0 °F 46.9 °F 96% 29.85 in 7.0 mi East 3.5 mph - 0.00 in Rain Light Rain
3:53 AM 48.0 °F 46.9 °F 96% 29.84 in 7.0 mi East 4.6 mph - 0.00 in   Overcast
4:53 AM 48.0 °F 46.9 °F 96% 29.84 in 7.0 mi Calm Calm - 0.00 in   Overcast
5:51 AM 48.2 °F 46.4 °F 93% 29.83 in 6.0 mi East 5.8 mph - 0.00 in Rain Light Rain
5:53 AM 48.9 °F 46.9 °F 93% 29.83 in 6.0 mi East 6.9 mph - 0.00 in Rain Light Rain
6:53 AM 50.0 °F 48.0 °F 93% 29.83 in 7.0 mi ENE 5.8 mph - 0.00 in Rain Light Rain
7:53 AM 51.1 °F 48.0 °F 89% 29.83 in 7.0 mi East 4.6 mph - 0.00 in Rain Light Rain
8:53 AM 55.0 °F 48.9 °F 80% 29.83 in 7.0 mi East 3.5 mph - 0.00 in   Overcast
9:53 AM 57.0 °F 48.0 °F 72% 29.83 in 6.0 mi Calm Calm - N/A   Haze
10:29 AM 59.0 °F 48.9 °F 69% 29.83 in 6.0 mi Calm Calm - N/A   Haze
10:53 AM 60.1 °F 48.9 °F 67% 29.84 in 6.0 mi SSW 5.8 mph - N/A   Haze
11:02 AM 60.1 °F 50.0 °F 69% 29.84 in 7.0 mi SW 8.1 mph - N/A   Mostly Cloudy
11:45 AM 61.0 °F 50.0 °F 67% 29.84 in 7.0 mi SW 8.1 mph - N/A   Overcast
11:53 AM 62.1 °F 50.0 °F 65% 29.84 in 7.0 mi Variable 4.6 mph - N/A   Overcast
12:53 PM 61.0 °F 51.1 °F 70% 29.83 in 6.0 mi WSW 11.5 mph - N/A   Haze
1:28 PM 63.0 °F 51.1 °F 65% 29.83 in 7.0 mi SW 8.1 mph - N/A   Scattered Clouds
1:39 PM 61.0 °F 51.1 °F 70% 29.84 in 7.0 mi SW 9.2 mph - N/A   Mostly Cloudy
1:53 PM 61.0 °F 51.1 °F 70% 29.84 in 7.0 mi Variable 5.8 mph - N/A   Overcast
2:34 PM 62.1 °F 51.1 °F 67% 29.84 in 7.0 mi South 8.1 mph - N/A   Scattered Clouds
2:53 PM 63.0 °F 51.1 °F 65% 29.84 in 7.0 mi SW 11.5 mph - N/A   Scattered Clouds
3:33 PM 61.0 °F 51.1 °F 70% 29.84 in 7.0 mi WSW 9.2 mph - N/A   Mostly Cloudy
3:53 PM 61.0 °F 48.9 °F 64% 29.85 in 7.0 mi SSW 6.9 mph - N/A   Mostly Cloudy
4:53 PM 57.9 °F 51.1 °F 78% 29.86 in 7.0 mi West 12.7 mph - N/A   Mostly Cloudy
5:13 PM 57.9 °F 51.1 °F 78% 29.86 in 7.0 mi WSW 11.5 mph - N/A   Overcast
5:53 PM 57.0 °F 51.1 °F 81% 29.86 in 4.0 mi WSW 9.2 mph - 0.00 in Rain Light Rain
6:10 PM 57.0 °F 51.1 °F 81% 29.86 in 7.0 mi WSW 10.4 mph - 0.00 in   Overcast
6:25 PM 55.0 °F 52.0 °F 89% 29.87 in 1.8 mi West 9.2 mph - 0.00 in Rain Rain
6:47 PM 53.6 °F 53.6 °F 100% 29.87 in 3.0 mi WNW 3.5 mph - 0.03 in Rain Light Rain
6:53 PM 54.0 °F 53.1 °F 97% 29.87 in 6.0 mi West 3.5 mph - 0.03 in Rain Light Rain
7:51 PM 55.4 °F 51.8 °F 88% 29.88 in 7.0 mi West 5.8 mph - N/A   Mostly Cloudy
7:53 PM 55.0 °F 51.1 °F 86% 29.88 in 7.0 mi West 5.8 mph - 0.01 in   Overcast
8:24 PM 55.0 °F 51.1 °F 86% 29.88 in 6.0 mi WSW 4.6 mph - N/A   Overcast
8:44 PM 53.1 °F 50.0 °F 89% 29.88 in 6.0 mi WSW 3.5 mph - N/A   Mostly Cloudy
8:53 PM 53.6 °F 51.8 °F 94% 29.89 in 6.0 mi West 3.5 mph - N/A   Mostly Cloudy
9:53 PM 51.1 °F 50.0 °F 96% 29.90 in 5.0 mi Calm Calm - N/A   Partly Cloudy
10:18 PM 50.0 °F 50.0 °F 100% 29.90 in 6.0 mi Calm Calm - N/A   Mostly Cloudy
10:53 PM 51.1 °F 50.0 °F 96% 29.91 in 7.0 mi Calm Calm - N/A   Overcast
11:01 PM 51.1 °F 50.0 °F 96% 29.90 in 7.0 mi Calm Calm - N/A   Overcast
11:20 PM 51.1 °F 50.0 °F 96% 29.90 in 6.0 mi Calm Calm - N/A   Mostly Cloudy
11:53 PM 48.0 °F 48.0 °F 100% 29.91 in 5.0 mi Calm Calm - N/A   Clear